Location: Falkner
(32.6954°N, 86.0502°W)
Time: 15:15:37
(UTC+00:00)

CZ-4 R/B - Pass Details

Date: 29 October 2020
Orbit: 532 x 598 km, 97.7° (Epoch: 03 December)

Event Time Altitude Azimuth Distance (km) Brightness Sun altitude
Rises 23:44:22 0° 141° (SE) 2,706 4.6 -10.8°
Reaches altitude 10° 23:46:45 10° 128° (SE) 1,807 3.6 -11.3°
Maximum altitude 23:49:58 25° 72° (ENE) 1,118 2.3 -12.0°
Drops below altitude 10° 23:53:09 10° 17° (NNE) 1,796 3.7 -12.7°
Sets 23:55:31 0° 4° (N) 2,685 4.7 -13.2°
